When you browse on this site, cookies collect data to enhance your experience and personalize the content and advertising you see.
Visit our Privacy Policy to learn more. By continuing to use the site, you agree to this use of cookies and data.
  • In Hungary
  • List of Countries
  • For 7 days
  • Water Temperature
  • Satellite Maps
  • Weather Map
  • News
  • Weather Widgets
  • user-avatar
    Login

    Hourly Weather Middelburg

    Today, 16 January, Wednesday

    Time Temperature Precipitation Wind Pressure Humidity
    00:00 +6°C° 0 mm 8 mps 760 mmHg 85%
    01:00 +6°C° 0.1 mm 9 mps 760 mmHg 83%
    02:00 +5°C° 0.1 mm 9 mps 759 mmHg 82%
    03:00 +5°C° 0.1 mm 10 mps 759 mmHg 80%
    04:00 +5°C° 0 mm 10 mps 758 mmHg 80%
    05:00 +3°C° 0 mm 9 mps 758 mmHg 80%
    06:00 +2°C° 0 mm 9 mps 758 mmHg 79%
    07:00 +2°C° 0 mm 9 mps 757 mmHg 78%
    08:00 +2°C° 0 mm 9 mps 757 mmHg 78%
    09:00 +2°C° 0 mm 9 mps 757 mmHg 78%
    10:00 +2°C° 0.2 mm 9 mps 756 mmHg 77%
    11:00 +3°C° 0.2 mm 9 mps 756 mmHg 75%
    12:00 +3°C° 0 mm 10 mps 755 mmHg 77%
    13:00 +3°C° 0.4 mm 10 mps 754 mmHg 76%
    14:00 +3°C° 0.4 mm 10 mps 753 mmHg 75%
    15:00 +3°C° 0.4 mm 9 mps 752 mmHg 74%
    16:00 +3°C° 0.9 mm 10 mps 752 mmHg 76%
    17:00 +3°C° 0.9 mm 10 mps 751 mmHg 78%
    18:00 +3°C° 0.9 mm 10 mps 751 mmHg 80%
    19:00 +3°C° 0.8 mm 10 mps 751 mmHg 83%
    20:00 +3°C° 0.8 mm 9 mps 751 mmHg 85%
    21:00 +5°C° 0.8 mm 9 mps 750 mmHg 88%
    22:00 +5°C° 0.2 mm 8 mps 751 mmHg 83%
    23:00 +5°C° 0.2 mm 7 mps 751 mmHg 79%

    Tomorrow, 17 January, Thursday

    Time Temperature Precipitation Wind Pressure Humidity
    00:00 +5°C° 0.2 mm 7 mps 751 mmHg 74%
    01:00 +4°C° 0 mm 7 mps 751 mmHg 76%
    02:00 +4°C° 0 mm 6 mps 751 mmHg 78%
    03:00 +3°C° 0 mm 6 mps 751 mmHg 79%
    04:00 +3°C° 0.2 mm 6 mps 751 mmHg 81%
    05:00 +3°C° 0.2 mm 6 mps 751 mmHg 82%
    06:00 +3°C° 0.2 mm 5 mps 751 mmHg 84%
    07:00 +3°C° 0.4 mm 6 mps 752 mmHg 81%
    08:00 +4°C° 0.4 mm 7 mps 752 mmHg 77%
    09:00 +4°C° 0.4 mm 8 mps 752 mmHg 74%
    10:00 +3°C° 0.2 mm 9 mps 753 mmHg 70%
    11:00 +3°C° 0.2 mm 9 mps 754 mmHg 66%
    12:00 +3°C° 0.2 mm 10 mps 754 mmHg 61%
    13:00 +3°C° 0.1 mm 10 mps 755 mmHg 60%
    14:00 +2°C° 0.1 mm 10 mps 756 mmHg 58%
    15:00 +2°C° 0.1 mm 10 mps 757 mmHg 57%
    16:00 +2°C° 0.1 mm 9 mps 758 mmHg 56%
    17:00 +2°C° 0.1 mm 9 mps 758 mmHg 56%
    18:00 +2°C° 0.1 mm 8 mps 759 mmHg 55%
    19:00 +2°C° 0 mm 8 mps 760 mmHg 57%
    20:00 +1°C° 0 mm 8 mps 760 mmHg 58%
    21:00 +1°C° 0 mm 8 mps 761 mmHg 60%
    22:00 +2°C° 0 mm 7 mps 762 mmHg 61%
    23:00 +2°C° 0 mm 6 mps 762 mmHg 62%

    Day after tomorrow, 18 January, Friday

    Time Temperature Precipitation Wind Pressure Humidity
    00:00 +2°C° 0 mm 5 mps 763 mmHg 63%
    01:00 +2°C° 0 mm 5 mps 763 mmHg 63%
    02:00 +3°C° 0 mm 4 mps 763 mmHg 63%
    03:00 +2°C° 0 mm 3 mps 763 mmHg 63%
    04:00 +3°C° 0 mm 2 mps 764 mmHg 64%
    05:00 +4°C° 0 mm 1 mps 764 mmHg 65%
    06:00 +4°C° 0 mm 1 mps 764 mmHg 66%
    07:00 +4°C° 0 mm 1 mps 764 mmHg 69%
    08:00 +3°C° 0 mm 2 mps 764 mmHg 72%
    09:00 +3°C° 0 mm 2 mps 764 mmHg 74%
    10:00 +3°C° 0 mm 3 mps 764 mmHg 72%
    11:00 +3°C° 0 mm 3 mps 764 mmHg 70%
    12:00 +4°C° 0 mm 3 mps 764 mmHg 68%
    13:00 +4°C° 0 mm 3 mps 764 mmHg 69%
    14:00 +4°C° 0 mm 3 mps 763 mmHg 70%
    15:00 +3°C° 0 mm 3 mps 763 mmHg 72%
    16:00 +3°C° 0 mm 4 mps 763 mmHg 74%
    17:00 +1°C° 0 mm 4 mps 763 mmHg 77%
    18:00 0°C° 0 mm 4 mps 763 mmHg 80%
    19:00 0°C° 0 mm 4 mps 763 mmHg 80%
    20:00 0°C° 0 mm 5 mps 763 mmHg 79%
    21:00 -1°C° 0 mm 5 mps 763 mmHg 79%
    22:00 -1°C° 0 mm 5 mps 763 mmHg 79%
    23:00 -1°C° 0 mm 5 mps 762 mmHg 78%

    19 January, Saturday

    Time Temperature Precipitation Wind Pressure Humidity
    00:00 -1°C° 0 mm 5 mps 762 mmHg 78%
    01:00 -1°C° 0 mm 5 mps 762 mmHg 76%
    02:00 -3°C° 0 mm 6 mps 761 mmHg 75%
    03:00 -3°C° 0 mm 6 mps 761 mmHg 74%
    04:00 -3°C° 0 mm 6 mps 761 mmHg 72%
    05:00 -3°C° 0 mm 6 mps 760 mmHg 71%
    06:00 -3°C° 0 mm 6 mps 760 mmHg 70%
    07:00 -2°C° 0 mm 6 mps 760 mmHg 69%
    08:00 -2°C° 0 mm 6 mps 759 mmHg 68%
    09:00 -2°C° 0 mm 6 mps 759 mmHg 68%
    10:00 -1°C° 0 mm 6 mps 759 mmHg 65%
    11:00 +1°C° 0 mm 6 mps 759 mmHg 63%
    12:00 +1°C° 0 mm 6 mps 759 mmHg 61%
    13:00 +1°C° 0 mm 6 mps 758 mmHg 62%
    14:00 +1°C° 0 mm 6 mps 758 mmHg 63%
    15:00 +1°C° 0 mm 5 mps 757 mmHg 65%
    16:00 +1°C° 0 mm 5 mps 757 mmHg 67%
    17:00 +1°C° 0 mm 5 mps 757 mmHg 69%
    18:00 0°C° 0 mm 5 mps 757 mmHg 71%
    19:00 0°C° 0 mm 5 mps 758 mmHg 72%
    20:00 0°C° 0 mm 5 mps 758 mmHg 74%
    21:00 0°C° 0 mm 5 mps 758 mmHg 76%
    22:00 -1°C° 0 mm 4 mps 758 mmHg 78%
    23:00 -1°C° 0 mm 4 mps 758 mmHg 81%

    20 January, Sunday

    Time Temperature Precipitation Wind Pressure Humidity
    00:00 -1°C° 0 mm 4 mps 758 mmHg 84%
    01:00 -1°C° 0 mm 4 mps 758 mmHg 85%
    02:00 -1°C° 0 mm 4 mps 758 mmHg 87%
    03:00 -1°C° 0 mm 4 mps 758 mmHg 88%
    04:00 -1°C° 0 mm 4 mps 758 mmHg 87%
    05:00 -1°C° 0 mm 4 mps 759 mmHg 85%
    06:00 -1°C° 0 mm 4 mps 759 mmHg 83%
    07:00 -1°C° 0 mm 4 mps 759 mmHg 83%
    08:00 -1°C° 0 mm 4 mps 760 mmHg 82%
    09:00 -1°C° 0 mm 4 mps 760 mmHg 81%
    10:00 0°C° 0 mm 4 mps 761 mmHg 78%
    11:00 +1°C° 0 mm 4 mps 761 mmHg 75%
    12:00 +2°C° 0 mm 3 mps 762 mmHg 72%
    13:00 +2°C° 0 mm 3 mps 762 mmHg 70%
    14:00 +1°C° 0 mm 4 mps 762 mmHg 69%
    15:00 +1°C° 0 mm 4 mps 762 mmHg 68%
    16:00 +1°C° 0 mm 4 mps 763 mmHg 68%
    17:00 0°C° 0 mm 4 mps 764 mmHg 69%
    18:00 -1°C° 0 mm 4 mps 764 mmHg 69%
    19:00 0°C° 0 mm 3 mps 765 mmHg 69%
    20:00 0°C° 0 mm 3 mps 766 mmHg 69%
    21:00 0°C° 0 mm 3 mps 766 mmHg 69%
    22:00 0°C° 0 mm 3 mps 766 mmHg 70%
    23:00 0°C° 0 mm 3 mps 767 mmHg 70%

    21 January, Monday

    Time Temperature Precipitation Wind Pressure Humidity
    00:00 -1°C° 0 mm 3 mps 767 mmHg 70%
    01:00 -1°C° 0 mm 3 mps 767 mmHg 71%
    02:00 -1°C° 0 mm 3 mps 767 mmHg 71%
    03:00 -1°C° 0 mm 3 mps 767 mmHg 72%
    04:00 -1°C° 0 mm 3 mps 767 mmHg 72%
    05:00 -1°C° 0 mm 2 mps 767 mmHg 72%
    06:00 -1°C° 0 mm 2 mps 767 mmHg 72%
    07:00 +1°C° 0 mm 2 mps 768 mmHg 72%
    08:00 +1°C° 0 mm 2 mps 768 mmHg 72%
    09:00 +1°C° 0 mm 2 mps 768 mmHg 71%
    10:00 +1°C° 0 mm 2 mps 768 mmHg 68%
    11:00 +2°C° 0 mm 2 mps 768 mmHg 65%
    12:00 +3°C° 0 mm 2 mps 768 mmHg 62%
    13:00 +2°C° 0 mm 2 mps 768 mmHg 63%
    14:00 +3°C° 0 mm 1 mps 768 mmHg 63%
    15:00 +3°C° 0 mm 1 mps 767 mmHg 64%
    16:00 +3°C° 0 mm 1 mps 767 mmHg 67%
    17:00 +1°C° 0 mm 2 mps 767 mmHg 70%
    18:00 -1°C° 0 mm 2 mps 767 mmHg 73%
    19:00 -1°C° 0 mm 2 mps 766 mmHg 74%
    20:00 -1°C° 0 mm 3 mps 766 mmHg 75%
    21:00 -2°C° 0 mm 4 mps 765 mmHg 76%
    22:00 -3°C° 0 mm 4 mps 764 mmHg 77%
    23:00 -3°C° 0 mm 4 mps 764 mmHg 78%
    Show more